Regional Weather Roundup
Issued by NWS Northern Indiana

Home | Current Version | Previous Version | Graphics & Text | Print | Product List | Glossary On
Versions: 1 2 3 4 5 6 7 8 9 10 11 12 13 14 15 16 17 18 19 20 21 22 23 24 25 26 27 28 29 30 31 32 33 34 35 36 37 38 39 40 41 42 43 44 45 46 47 48 49 50
000
ASUS43 KIWX 022210
RWRIWX

KIWX WEATHER ROUNDUP
NATIONAL WEATHER SERVICE NORTHERN INDIANA
600 PM EDT TUE SEP 02 2014

NOTE: "FAIR" INDICATES FEW OR NO CLOUDS BELOW 12,000 FEET WITH NO
SIGNIFICANT WEATHER AND/OR OBSTRUCTIONS TO VISIBILITY.

* THESE STATIONS ARE NOT UNDER NWS QUALITY CONTROL. THEY ALSO MAY NOT
  REPORT WEATHER SUCH AS PRECIPITATION OR FOG.

INZ001>027-022300-
NORTHERN INDIANA

CITY           SKY/WX    TMP DP  RH WIND       PRES   REMARKS
GARY*          PTSUNNY   81  64  57 NE5       29.90S
VALPARAISO     SUNNY     81  61  50 W12       29.91S
MICHIGAN CITY* SUNNY     77  61  57 N5        29.92R
LAPORTE*       SUNNY     76  64  66 CALM      29.92S
KNOX*          SUNNY     80  62  55 W8        29.90S
SOUTH BEND     MOSUNNY   80  59  48 N8        29.92S
ELKHART*       SUNNY     79  55  44 NW8       29.92S
GOSHEN         SUNNY     76  62  62 W9        29.91F
MONTICELLO*    MOSUNNY   78  68  71 W8        29.91S
LOGANSPORT*    PTSUNNY   77  64  65 SW12      29.92S
ROCHESTER*     MOSUNNY   82  68  61 W5        29.91S
WARSAW*        PTSUNNY   79  64  61 N6        29.91S
ANGOLA*        MOSUNNY   79  64  61 NW8       29.90F
FORT WAYNE     PTSUNNY   76  67  73 W10       29.91F
HUNTINGTON*    PTSUNNY   76  69  77 SW9       29.91S
PERU/GRISSOM   PTSUNNY   77  71  83 SW13      29.91F
MARION*        PTSUNNY   76  65  69 W6        29.93S

$$
INZ028>050-022300-
CENTRAL INDIANA

CITY           SKY/WX    TMP DP  RH WIND       PRES   REMARKS
LAFAYETTE      PTSUNNY   76  69  79 W5        29.91F
KOKOMO*        PTSUNNY   79  66  65 W10       29.92S
MUNCIE*        PTSUNNY   76  65  68 W9        29.93F
INDIANAPOLIS   PTSUNNY   78  64  61 W10       29.93S

$$
MIZ043>046-050>051-056>058-064>065-071>073-077>080-022300-
SOUTHWEST LOWER MICHIGAN

CITY           SKY/WX    TMP DP  RH WIND       PRES   REMARKS
BATTLE CREEK   MOSUNNY   78  59  51 NW12      29.91F
BENTON HARBOR  SUNNY     76  61  59 NW5       29.91S
COLDWATER*     SUNNY     79  61  53 NW9       29.91S
HILLSDALE*     MOSUNNY   79  60  52 W9        29.91S
HOLLAND        SUNNY     76  60  57 W7        29.92S
GRAND RAPIDS   MOSUNNY   78  57  48 NW10      29.91R
KALAMAZOO      MOSUNNY   78  60  53 NW9       29.91S
STURGIS*       PTSUNNY   77  64  65 NW7       29.90F
THREE RIVERS*  FAIR      78  60  53 NW12      29.91S

$$
OHZ001>008-015>018-024>025-022300-
NORTHWEST OHIO

CITY           SKY/WX    TMP DP  RH WIND       PRES   REMARKS
WAUSEON*       FAIR      79  63  57 NW7       29.89F
DEFIANCE       PTSUNNY   79  65  62 VRB3      29.90S
FINDLAY        PTSUNNY   76  66  71 SW8       29.91S
TOLEDO EXPRESS MOSUNNY   79  62  56 W6        29.89S
TOLEDO METCALF PTSUNNY   78  68  71 W6        29.90R
LIMA           PTSUNNY   76  66  71 W12       29.93S

$$
&&


USA.gov is the U.S. government's official web portal to all federal, state and local government web resources and services.